カタログに戻る

YAOGAN-43 O1A

運用中軍事VLEO
NORAD 60458·PAYLOAD·🇨🇳 China

打ち上げ Aug 16, 2024 から Xichang Satellite Launch Center

Loading…

次のパス (今後24時間)

TLE

最新Source: Space-Track

元期: Sep 14, 2026, 11:42 UTC

1 60458U 24148A   26257.48802457  .00011839  00000-0  30851-3 0  9994
2 60458  35.0044 285.0807 0003970 296.3384  63.6927 15.38019174116195

AllMySatでYAOGAN-43 O1Aをリアルタイム追跡

Download on the App Store